Regional Weather Roundup
Issued by NWS Grand Forks, ND

Home | Current Version | Previous Version | Text Only | Print | Product List | Glossary Off
Versions: 1 2 3 4 5 6 7 8 9 10 11 12 13 14 15 16 17 18 19 20 21 22 23 24 25 26 27 28 29 30 31 32 33 34 35 36 37 38 39 40 41 42 43 44 45 46 47 48 49 50

000
ASUS43 KFGF 311310
RWRFGF
PRAIRIE TO PINES  WEATHER ROUNDUP
NATIONAL WEATHER SERVICE EASTERN NORTH DAKOTA/GRAND FORKS ND
800 AM CDT THU JUL 31 2014

 **SATELLITE DATA USED TO AUGMENT SKY COVER AT AUTOMATED STATIONS**
 *****  WEATHER ACROSS EASTERN NORTH DAKOTA  *****

CITY           SKY/WX    TMP DP  RH WIND       PRES   REMARKS
GRAND FORKS    SUNNY     63  60  90 W3        30.03S
GRAND FRKS AFB SUNNY     65  64  95 W6        30.04F
GRAND FRKS NWS   N/A     63 N/A N/A MISG        N/A
DEVILS LAKE    SUNNY     63  55  77 CALM      30.06S
FARGO          SUNNY     61  57  87 CALM      30.05R
WAHPETON ARPT  SUNNY     55  52  88 W3        30.06S
$$

 ***** WEATHER ACROSS CENTRAL AND WESTERN NORTH DAKOTA  *****

CITY           SKY/WX    TMP DP  RH WIND       PRES   REMARKS
BISMARCK       MOSUNNY   60  56  86 CALM      30.11R
MINOT          SUNNY     62  54  74 CALM      30.09R
JAMESTOWN      SUNNY     63  57  81 NW3       30.08S
MINOT AFB      SUNNY     61  60  97 W5        30.08S
GARRISON         N/A     61  59  93 N5        30.11R
WILLISTON      CLOUDY    66  60  81 CALM      30.06F
DICKINSON      PTSUNNY   59  55  87 SE3       30.12F
HETTINGER      PTSUNNY   59  55  87 NW6       30.16R
$$

 *****  OTHER AIRPORT OBSERVATIONS IN OUR AREA  *****

CITY           SKY/WX    TMP DP  RH WIND       PRES   REMARKS
WALHALLA         N/A     64  64 100 W3          N/A
GRAFTON AIRPOR FAIR      63  59  88 NW3       30.03F
VALLEY CITY AR FAIR      59  59 100 N3        30.08S
CANDO          FAIR      59  57  94 CALM      30.08S
CAVALIER APRT  FAIR      64  59  82 CALM      30.04S
GWINNER        MOSUNNY   61  59  94 SW5       30.09S
SHEYENNE NWR     N/A     60  57  89 CALM      29.95S
ROLLA          FAIR      61  61 100 NW3       30.10R
 ***** THE ABOVE OBSERVATIONS ARE NON NWS ARE NOT QUALITY
       CONTROLLED AND MAY MIS-REPORT RAIN FOR SNOW...
$$

  *****  WEATHER ACROSS NORTHERN MINNESOTA  *****

CITY           SKY/WX    TMP DP  RH WIND       PRES   REMARKS
FLAG ISLAND    SUNNY     66  57  72 NW6       30.00F
WARROAD        SUNNY     61  55  82 CALM      30.02S
ROSEAU         SUNNY     61  55  82 CALM      30.03R
HALLOCK        SUNNY     63  59  88 NW3       30.03S
THF RVR FALLS  SUNNY     61  57  88 W5        30.04R
BAUDETTE       SUNNY     61  59  93 NW3       30.02S
WASKISH        SUNNY     64  61  88 CALM      30.01S
CROOKSTON      SUNNY     61  57  88 NW3       30.04S
$$
  *****  WEATHER ACROSS CENTRAL AND WEST MINNESOTA  *****

CITY           SKY/WX    TMP DP  RH WIND       PRES   REMARKS
FOSSTON        SUNNY     59  57  94 CALM      30.05S
BEMIDJI        SUNNY     62  56  79 W5        30.03F
PARK RAPIDS    SUNNY     62  58  86 W3        30.05S
ELBOW LAKE     FAIR      58  57  94 CALM      30.06S
WADENA         MOSUNNY   61  59  94 CALM      30.05S
DETROIT LAKES  MOSUNNY   63  61  94 CALM      30.07S
MOORHEAD       SUNNY     61  61 100 CALM      30.06S
FERGUS FALLS   SUNNY     61  57  88 CALM      30.06S
MORRIS MN      SUNNY     63  57  82 CALM      30.05F
STAPLES        MOSUNNY   61  57  88 CALM      30.05S
$$
  *****  WEATHER ELSEWHERE ACROSS MINNESOTA  *****

CITY           SKY/WX    TMP DP  RH WIND       PRES   REMARKS
DULUTH         SUNNY     63  57  81 N3        30.00R
INTRNTL FALLS  SUNNY     57  57 100 CALM      30.00S
ELY            FOG       55  54  94 CALM      30.00S VSB<1/4
CLOQUET        SUNNY     63  57  82 NW7       30.00S
WHEATON        MOSUNNY   63  57  82 CALM      30.08S
BRAINERD       MOSUNNY   62  58  86 CALM      30.04S
HIBBING        SUNNY     60  57  89 CALM      30.01S
ALEXANDRIA     MOSUNNY   62  59  90 CALM      30.07F
SAINT CLOUD    MOSUNNY   62  56  80 CALM      30.04F
MINNEAPOLIS    MOSUNNY   64  59  83 SW3       30.05R
$$

  *****  WEATHER ACROSS SOUTH DAKOTA  *****

CITY           SKY/WX    TMP DP  RH WIND       PRES   REMARKS
SIOUX FALLS    PTSUNNY   63  58  83 CALM      30.09S
BROOKINGS      NOT AVBL
WATERTOWN      SUNNY     59  54  83 CALM      30.09S
HURON          CLOUDY    60  57  89 S3        30.07F
SISSETON         N/A     61  58  90 NW3       30.06S
ABERDEEN       MOSUNNY   63  57  81 CALM      30.08F
MITCHELL       CLOUDY    66  61  84 SE8       30.06F
PIERRE         SUNNY     64  56  75 N3        30.08R
MOBRIDGE       SUNNY     63  55  75 E3        30.09R
RAPID CITY     SUNNY     62  48  60 NW6       30.17S
$$

  *****  SOME WEATHER IN NEARBY STATES *****

CITY           SKY/WX    TMP DP  RH WIND       PRES   REMARKS
GLASGOW MT     MOSUNNY   68  48  48 SE14      30.06R
GREAT FALLS MT CLEAR     60  44  55 W6        30.14S
CHEYENNE WY    SUNNY     53  45  74 W9        30.32S
SCOTTSBLUFF NE SUNNY     58  56  93 NW3       30.22R
OMAHA NE       SUNNY     63  57  81 SE8       30.11S
DES MOINES IA  SUNNY     63  57  81 W3        30.10S
DAVENPORT IA   SUNNY     62  59  90 W6        30.08R FOG
CHICAGO IL     MOSUNNY   67  53  61 W7        30.03R
EAU CLAIRE WI  SUNNY     62  59  90 SW5       30.01S
LA CROSSE WI   SUNNY     66  59  78 S6        30.03R
$$

  *****  SOME NATIONAL WEATHER *****

CITY           SKY/WX    TMP DP  RH WIND       PRES   REMARKS
LA GUARDIA NY  PTSUNNY   74  55  51 SW12      30.10R
RALEIGH NC     PTSUNNY   73  66  78 CALM      30.13R
ATLANTA GA     CLOUDY    71  64  78 E10       30.07R
NEW ORLEANS LA CLOUDY    79  68  69 E3        30.03R
OKLAHOMA CITY  LGT RAIN  68  66  93 NE7       30.08R FOG
ALBUQUERQUE NM PTCLDY    64  56  75 E7        30.29R
SALT LAKE CITY PTCLDY    63  56  78 SW3       30.17S
LOS ANGELES CA PTCLDY    67  63  87 CALM      29.92R
BOISE ID       PTCLDY    68  49  50 NE5       30.12R
SEATTLE WA     PTCLDY    65  46  50 NE6       30.12S
$$

*** WEATHER ACROSS MANITOBA...SASKATCHEWAN AND ONTARIO ***
                ***ONTARIO***

CITY           SKY/WX    TMP DP  RH WIND       PRES   REMARKS
GERALDTON      CLOUDY    55  52  88 W9        29.86
THUNDER BAY    MOSUNNY   57  54  88 SW6       29.94S
SIOUX LOOKOUT  SUNNY     57  55  94 N5        30.00S
TORONTO        PTSUNNY   64  52  63 S5        30.00S
BIG TROUT LK   MOSUNNY   54  45  71 NW8       29.99S
PICKLE LAKE    PTSUNNY   55  46  71 N7        29.97R
DRYDEN         SUNNY     57  54  88 NW5       30.01R
KENORA         CLOUDY    63  54  72 N6        30.03S
$$
                *** MANITOBA***

CITY           SKY/WX    TMP DP  RH WIND       PRES   REMARKS
BRANDON        MOSUNNY   61  57  88 SW3       30.07F
DAUPHIN        SUNNY     61  57  88 W5        30.07R
ISLAND LAKE    NOT AVBL
PILOT MOUND      N/A     59  57  94 NW2         N/A
THE PAS        CLOUDY    68  63  83 W10       30.03R
THOMPSON       MOSUNNY   63  55  77 SE6       30.08R
WINNIPEG       SUNNY     61  59  94 NW2       30.03F
LYNN LAKE      SUNNY     64  59  82 E5        30.04F
CHURCHILL      MOSUNNY   55  52  88 S2        30.12S
GILLAM         CLOUDY    52  52 100 CALM      30.12S
$$
                ***SASKATCHEWAN***

CITY           SKY/WX    TMP DP  RH WIND       PRES   REMARKS
ESTEVAN        MOSUNNY   59  57  94 SE5       30.09S
KINDERSLEY     MOSUNNY   61  59  94 NE5       30.03R
LLOYDMINSTER   NOT AVBL
PRINCE ALBERT  PTSUNNY   63  63 100 CALM      30.09R
REGINA         MOSUNNY   63  57  82 SE9       30.07S
YORKTON        SUNNY     61  59  94 VRB2      30.10R
N. BATTLEFORD    N/A     63  59  88 VRB2      30.09R
LA RONGE       PTSUNNY   66  59  77 N2        30.06S
SASKATOON      PTSUNNY   64  59  82 E5        30.06S
SWIFT CURRENT  SUNNY     61  54  77 S10       30.03S
$$
NOTE: THESE ARE AUTOMATED STATIONS WITH LIMITED QUALITY CONTROL
      "FAIR" INDICATES FEW OR NO CLOUDS BELOW 12,000 FEET WITH NO
      SIGNIFICANT WEATHER AND/OR OBSTRUCTIONS TO VISIBILITY.
      SKY/WX - SKY CONDITION AND SIGNIFICANT WEATHER.
      TMP - AIR TEMPERATURE.    DP   - DEWPOINT TEMPERATURE.
      RH  - RELATIVE HUMIDITY.  PRES - PRESSURE.
      HX  - HEAT INDEX.         WCI  - WIND CHILL INDEX.
$



USA.gov is the U.S. government's official web portal to all federal, state and local government web resources and services.